[[{"header":{"parameterUnit":"m.s-1","parameterCategory":1,"la1":30.2991,"la2":30.254,"lo1":-89.0895,"lo2":-89.0444,"dy":0.0017,"dx":0.0017,"nx":28,"ny":28,"refTime":"2024-05-13T09:00:00:Z","depth":0,"parameterNumber":2,"parameterNumberName":"U-component_of_WINDS"},"data":[0,0,0,0,0,0,0,0,0,0,0,0,0,0,0,0,0,0,0,0,0,0,0,0,0,0,0,0,0,0,0,0,0,0,0,0,0,0,0,0,0,0,0,0,0,0,0,0,0,0,0,0,0,0,0,0,0,0,-3.4742,-3.4743,0,-3.4879,-3.4881,-3.4883,-3.4928,-3.4928,-3.4927,-3.4927,-3.507,-3.5074,-3.5078,0,0,0,0,0,0,0,0,0,0,0,0,0,-3.452,-3.4524,-3.4742,-3.4743,-3.4745,-3.4879,-3.4881,-3.4883,-3.4929,-3.4928,-3.4927,-3.4926,-3.5068,-3.5073,-3.5079,0,0,0,0,0,0,0,0,0,0,0,0,0,-3.4633,-3.4525,-3.4741,-3.4784,-3.4789,-3.4879,-3.4881,-3.4883,-3.4929,-3.4928,-3.4927,-3.4926,-3.5066,-3.5073,-3.5079,-3.5137,0,0,-3.5099,-3.5102,0,0,0,0,0,0,0,0,-3.4626,-3.4641,-3.4776,-3.4781,-3.4787,-3.4886,-3.4855,-3.4969,-3.4929,-3.4876,-3.4927,-3.4926,-3.5009,-3.502,-3.5048,-3.5144,-3.515,-3.51,-3.5104,-3.5107,-3.5108,0,0,0,0,0,0,0,-3.4618,-3.4635,-3.4796,-3.4778,-3.4785,-3.4797,-3.4812,-3.4877,-3.4946,-3.488,-3.4884,-3.49,-3.5012,-3.5042,-3.5052,-3.5152,-3.51,-3.5105,-3.5109,-3.5112,-3.5302,-3.5303,0,0,0,0,0,0,-3.4603,-3.4628,-3.4792,-3.48,-3.4703,-3.4801,-3.4818,-3.4855,-3.4945,-3.4958,-3.49,-3.4901,-3.5031,-3.5044,-3.5057,-3.513,-3.5106,-3.5113,-3.5116,-3.5301,-3.5302,-3.5303,0,0,0,0,0,0,-3.4598,-3.4617,-3.4786,-3.4715,-3.4738,-3.4806,-3.4847,-3.4858,-3.4888,-3.496,-3.4973,-3.4918,-3.5031,-3.5048,-3.5117,-3.5136,-3.5116,-3.5121,-3.5299,-3.5301,-3.5302,-3.5277,0,0,0,0,0,0,-3.4592,-3.4615,-3.4637,-3.4716,-3.4741,-3.4843,-3.4848,-3.4862,-3.4899,-3.4901,-3.498,-3.4992,-3.5032,-3.5107,-3.5123,-3.5145,-3.5127,-3.5298,-3.53,-3.5302,-3.5277,-3.5278,-3.5279,0,0,0,0,0,-3.4583,-3.4625,-3.4638,-3.4658,-3.4771,-3.4844,-3.4859,-3.4903,-3.49,-3.4923,-3.497,-3.499,-3.5131,-3.5113,-3.5132,-3.5156,-3.5297,-3.5299,-3.5302,-3.5276,-3.5278,-3.5279,0,0,0,0,0,0,-3.4549,-3.4636,-3.4652,-3.472,-3.4774,-3.4851,-3.4882,-3.4903,-3.4959,-3.4959,-3.5012,-3.503,-3.5094,-3.5132,-3.5111,-3.5216,-3.5215,-3.5221,-3.5189,-3.5191,-3.5192,-3.5181,-3.5132,0,0,0,0,0,-3.4549,-3.46,-3.4675,-3.4728,-3.4754,-3.4813,-3.4847,-3.4876,-3.4934,-3.4957,-3.5009,-3.5065,-3.5122,-3.5159,-3.5216,-3.5283,-3.53,-3.5308,-3.5309,-3.531,-3.5315,-3.5352,-3.5357,-3.5311,-3.5311,-3.5311,0,0,-3.455,-3.4604,-3.4634,-3.4722,-3.4767,-3.482,-3.4832,-3.4888,-3.4927,-3.4966,-3.5034,-3.5073,-3.514,-3.5207,-3.524,-3.5241,-3.5331,-3.5313,-3.5313,-3.5318,-3.5355,-3.5359,-3.5363,-3.5313,-3.5313,-3.5313,0,0,-3.4579,-3.4625,-3.4674,-3.4719,-3.4787,-3.4826,-3.4837,-3.4912,-3.4939,-3.5008,-3.5038,-3.5087,-3.5184,-3.523,-3.5266,-3.5311,-3.5332,-3.5329,-3.5334,-3.537,-3.5374,-3.5377,-3.5393,-3.5398,-3.5333,-3.5333,-3.5333,0,-3.4572,-3.4651,-3.4697,-3.475,-3.4788,-3.4825,-3.4875,-3.4917,-3.5,-3.5026,-3.5026,-3.5148,-3.5196,-3.5274,-3.5285,-3.5314,-3.5329,-3.5319,-3.5369,-3.5373,-3.5377,-3.5393,-3.5398,-3.5332,-3.5332,-3.5332,-3.5332,0,-3.4639,-3.4694,-3.4725,-3.4803,-3.4845,-3.4897,-3.495,-3.4987,-3.5012,-3.5051,-3.5121,-3.5179,-3.5248,-3.5269,-3.5295,-3.5351,-3.535,-3.5359,-3.5358,-3.538,-3.5395,-3.5401,-3.5331,-3.5331,-3.5332,-3.5332,0,0,-3.465,-3.4752,-3.4762,-3.4798,-3.4876,-3.4919,-3.4973,-3.5039,-3.5069,-3.5126,-3.5171,-3.5253,-3.5262,-3.5303,-3.5334,-3.5366,-3.5397,-3.5371,-3.5374,-3.5373,-3.5462,-3.5454,-3.546,-3.5411,-3.5413,-3.5414,-3.5457,0,-3.4688,-3.4783,-3.4825,-3.4902,-3.4953,-3.4989,-3.5036,-3.5088,-3.5126,-3.5175,-3.5218,-3.5274,-3.5282,-3.5307,-3.534,-3.5386,-3.5416,-3.5384,-3.5455,-3.5457,-3.5436,-3.5469,-3.546,-3.5498,-3.5463,-3.5464,-3.5465,0,-3.4745,-3.48,-3.4881,-3.4952,-3.4975,-3.5016,-3.508,-3.5127,-3.5187,-3.5213,-3.5258,-3.5288,-3.5345,-3.5341,-3.5421,-3.5398,-3.543,-3.5457,-3.546,-3.5468,-3.5461,-3.5476,-3.5511,-3.5516,-3.5475,-3.5474,-3.5473,0,-3.4744,-3.4838,-3.4899,-3.4929,-3.5013,-3.5041,-3.5077,-3.5137,-3.5174,-3.523,-3.5255,-3.5317,-3.5351,-3.5399,-3.5445,-3.5438,-3.5521,-3.5521,-3.5543,-3.5542,-3.5559,-3.5557,-3.5598,-3.558,-3.558,-3.558,-3.558,0,-3.4781,-3.483,-3.4899,-3.4937,-3.4992,-3.504,-3.5094,-3.5133,-3.5185,-3.5231,-3.5267,-3.5309,-3.5368,-3.5418,-3.5454,-3.5514,-3.553,-3.5552,-3.5561,-3.5549,-3.5546,-3.557,-3.5568,-3.5581,-3.5581,-3.5581,-3.558,0,-3.4789,-3.4838,-3.4906,-3.498,-3.4999,-3.5037,-3.51,-3.5138,-3.5177,-3.5235,-3.5251,-3.5313,-3.5374,-3.5425,-3.5505,-3.5529,-3.5592,-3.5603,-3.5571,-3.5575,-3.5595,-3.5592,-3.5653,-3.5663,-3.5638,-3.5638,-3.5638,0,-3.481,-3.4848,-3.4925,-3.4957,-3.4993,-3.5046,-3.5083,-3.5132,-3.517,-3.5242,-3.5271,-3.5334,-3.5386,-3.5482,-3.5534,-3.5595,-3.5608,-3.5625,-3.5617,-3.5603,-3.5607,-3.5604,-3.5608,-3.5625,-3.5625,-3.5625,-3.5625,0,-3.4841,-3.4863,-3.4915,-3.4976,-3.5019,-3.507,-3.5121,-3.5146,-3.5205,-3.5246,-3.5307,-3.5348,-3.5429,-3.5491,-3.5558,-3.5596,-3.5621,-3.5627,-3.5635,-3.5623,-3.5602,-3.5613,-3.5571,-3.5625,-3.5625,-3.5625,-3.5625,-3.5625,-3.4856,-3.4891,-3.495,-3.5007,-3.5051,-3.5098,-3.5136,-3.518,-3.5232,-3.5301,-3.5327,-3.539,-3.545,-3.5542,-3.558,-3.5631,-3.5634,-3.5646,-3.5649,-3.5651,-3.5649,-3.5594,-3.5643,-3.5643,-3.5643,-3.5643,-3.5643,0,-3.4889,-3.4928,-3.498,-3.505,-3.5095,-3.5113,-3.517,-3.5207,-3.5261,-3.5315,-3.5365,-3.5436,-3.5496,-3.5553,-3.5616,-3.5646,-3.5658,-3.566,-3.5659,-3.5667,-3.5643,-3.5629,-3.5649,-3.5649,-3.5649,-3.5649,-3.5649,-3.5649,-3.4911,-3.497,-3.4999,-3.5081,-3.5121,-3.5182,-3.5213,-3.5256,-3.5299,-3.5376,-3.5425,-3.5462,-3.5517,-3.5584,-3.564,-3.5655,-3.5676,-3.5675,-3.5694,-3.567,-3.5669,-3.5668,-3.5655,-3.568,-3.568,-3.5714,-3.5714,-3.5714]},{"header":{"parameterUnit":"m.s-1","parameterCategory":1,"la1":30.2991,"la2":30.254,"lo1":-89.0895,"lo2":-89.0444,"dy":0.0017,"dx":0.0017,"nx":28,"ny":28,"refTime":"2024-05-13T09:00:00:Z","depth":0,"parameterNumber":3,"parameterNumberName":"V-component_of_WINDS"},"data":[0,0,0,0,0,0,0,0,0,0,0,0,0,0,0,0,0,0,0,0,0,0,0,0,0,0,0,0,0,0,0,0,0,0,0,0,0,0,0,0,0,0,0,0,0,0,0,0,0,0,0,0,0,0,0,0,0,0,6.9954,6.9954,0,7.0033,7.0034,7.0035,6.9979,6.9977,6.9974,6.9972,7.005,7.0054,7.0058,0,0,0,0,0,0,0,0,0,0,0,0,0,6.9749,6.9753,6.9953,6.9954,6.9955,7.0033,7.0034,7.0035,6.998,6.9977,6.9974,6.9971,7.0048,7.0053,7.0059,0,0,0,0,0,0,0,0,0,0,0,0,0,6.9834,6.9754,6.9953,6.9937,6.9937,7.0033,7.0034,7.0036,6.998,6.9977,6.9973,6.997,7.0046,7.0053,7.0059,7.0175,0,0,7.0079,7.0082,0,0,0,0,0,0,0,0,6.9829,6.9842,6.9939,6.9938,6.9938,6.9993,6.9991,7.0082,6.9981,6.9964,6.9972,6.9968,7.0033,7.0041,7.0064,7.0178,7.0182,7.008,7.0084,7.0087,7.0089,0,0,0,0,0,0,0,6.9824,6.9838,6.9985,6.994,6.994,6.9925,6.9933,7.0008,7.0018,6.9965,6.9961,6.9972,7.0032,7.0058,7.0065,7.0183,7.008,7.0086,7.009,7.0092,7.0396,7.04,0,0,0,0,0,0,6.982,6.9833,6.9982,6.9987,6.9874,6.9932,6.994,6.9979,7.0017,7.002,6.9975,6.9969,7.0048,7.0058,7.0068,7.0205,7.0087,7.0093,7.0097,7.0392,7.0397,7.0401,0,0,0,0,0,0,6.9815,6.9833,6.9979,6.9909,6.9927,6.9939,6.9983,6.9982,7.0007,7.0025,7.0026,6.9999,7.0046,7.0058,7.0149,7.0207,7.0096,7.0102,7.0387,7.0393,7.0399,7.0481,0,0,0,0,0,0,6.981,6.9832,6.9877,6.9911,6.9931,7.006,6.9986,6.9987,7.002,7.0012,7.0048,7.005,7.0044,7.0139,7.0155,7.0214,7.0107,7.0382,7.039,7.0397,7.0473,7.0489,7.0503,0,0,0,0,0,6.9803,6.9896,6.988,6.9898,6.9987,7.0064,7.0075,7.0067,7.0025,7.0069,7.008,7.0049,7.0199,7.0149,7.0167,7.0228,7.0378,7.0388,7.0397,7.0466,7.0486,7.0503,0,0,0,0,0,0,6.9866,6.99,6.9882,6.9989,7.0024,7.0054,7.011,7.0088,7.0135,7.0126,7.0113,7.0121,7.0216,7.0231,7.0176,7.0342,7.0281,7.0295,7.0328,7.0347,7.0362,7.0356,7.0112,0,0,0,0,0,6.9893,6.9954,6.9979,7.0071,7.009,7.0098,7.013,7.0122,7.0157,7.0171,7.0188,7.0222,7.0277,7.0313,7.0364,7.0476,7.0482,7.0527,7.0542,7.0554,7.0565,7.0625,7.0645,7.0432,7.0432,7.0432,0,0,6.9949,6.9975,7.0013,7.0085,7.0111,7.0173,7.011,7.0178,7.0223,7.018,7.0267,7.0282,7.0319,7.042,7.0466,7.0436,7.0626,7.0566,7.0575,7.058,7.0636,7.0656,7.0674,7.0438,7.0437,7.0436,0,0,7.0081,7.0107,7.0187,7.0215,7.0256,7.026,7.028,7.0313,7.0322,7.0409,7.0378,7.0432,7.0526,7.0554,7.0581,7.0726,7.0698,7.0743,7.082,7.0879,7.0895,7.091,7.0961,7.098,7.0754,7.0754,7.0755,0,7.0144,7.0237,7.023,7.0301,7.0333,7.03,7.0379,7.0406,7.0461,7.0484,7.045,7.0569,7.0592,7.0699,7.0735,7.0758,7.0778,7.0738,7.0894,7.0909,7.0922,7.0971,7.099,7.076,7.0759,7.0758,7.0758,0,7.0313,7.0378,7.0437,7.0493,7.0532,7.0607,7.061,7.0651,7.0639,7.0647,7.0736,7.0763,7.0819,7.0844,7.0833,7.095,7.093,7.0896,7.0834,7.0948,7.0993,7.1012,7.0767,7.0765,7.0763,7.0762,0,0,7.0485,7.0538,7.056,7.0585,7.0629,7.0678,7.0752,7.0808,7.0843,7.0883,7.0943,7.1025,7.0994,7.1024,7.1016,7.1067,7.118,7.1026,7.1027,7.1053,7.131,7.1335,7.1357,7.1163,7.1167,7.1169,7.1307,0,7.0619,7.0749,7.0745,7.0865,7.0925,7.0895,7.0959,7.0992,7.1002,7.1053,7.1063,7.1121,7.1076,7.1094,7.1144,7.1156,7.1231,7.1146,7.1218,7.122,7.1208,7.1381,7.1407,7.1536,7.1325,7.1328,7.133,0,7.0793,7.084,7.0967,7.1002,7.1027,7.1085,7.1137,7.1187,7.1224,7.1227,7.1262,7.1246,7.132,7.1258,7.1359,7.1301,7.133,7.1341,7.1346,7.1351,7.1281,7.1389,7.1576,7.1595,7.1358,7.1356,7.1354,0,7.0905,7.1,7.1089,7.1111,7.1155,7.1196,7.1216,7.125,7.1284,7.1329,7.1352,7.1405,7.1433,7.1474,7.1472,7.1428,7.1574,7.1512,7.1578,7.1578,7.1609,7.1607,7.1802,7.163,7.163,7.163,7.1629,0,7.1054,7.1133,7.114,7.1194,7.1281,7.1275,7.1361,7.1377,7.1407,7.1463,7.144,7.1493,7.1488,7.1541,7.154,7.1623,7.1637,7.1641,7.1639,7.1642,7.1642,7.166,7.165,7.1635,7.1634,7.1633,7.1632,0,7.1194,7.1202,7.1296,7.133,7.1341,7.1403,7.1432,7.1483,7.1492,7.1563,7.1579,7.1592,7.1653,7.1656,7.1726,7.1726,7.1827,7.1816,7.1815,7.1813,7.1878,7.1871,7.2091,7.2119,7.193,7.1932,7.1933,0,7.1288,7.1348,7.1389,7.1426,7.1449,7.1508,7.1544,7.1541,7.1579,7.1626,7.1672,7.1731,7.1778,7.1878,7.1892,7.1946,7.1936,7.2009,7.1943,7.1945,7.1936,7.1932,7.1937,7.2021,7.2023,7.2025,7.2026,0,7.1454,7.1455,7.1508,7.1564,7.1607,7.165,7.169,7.1721,7.1723,7.1767,7.183,7.1867,7.194,7.1999,7.2051,7.207,7.2049,7.2048,7.2065,7.2068,7.2065,7.2067,7.1849,7.2042,7.204,7.2039,7.2038,7.2038,7.1572,7.1624,7.1662,7.1722,7.1753,7.1791,7.184,7.1856,7.1909,7.1969,7.1964,7.2034,7.207,7.2139,7.2163,7.2217,7.2192,7.2218,7.2224,7.223,7.2237,7.2058,7.2227,7.2226,7.2226,7.2225,7.2225,0,7.1736,7.176,7.1815,7.1873,7.192,7.1898,7.1941,7.1981,7.2044,7.208,7.2128,7.2201,7.2258,7.2279,7.2335,7.2374,7.2365,7.2389,7.2385,7.239,7.2257,7.2235,7.2395,7.2395,7.2394,7.2394,7.2394,7.2394,7.1827,7.1914,7.192,7.2021,7.2044,7.2113,7.214,7.2175,7.2204,7.2287,7.2335,7.2349,7.2378,7.2436,7.2488,7.2492,7.2513,7.2541,7.2541,7.2416,7.2399,7.2383,7.2362,7.2546,7.2546,7.2669,7.267,7.2671]}]]